* Astronomy

Members Login
Username 
 
Password 
    Remember Me  
Post Info TOPIC: Asteroid 2010 OR1


L

Posts: 131433
Date:
Asteroid 2010 OR1
Permalink  
 


Orbital elements:
2010 OR1
Epoch 2010 July 23.0 TT = JDT 2455400.5 MPC
M 0.06071 (2000.0) P Q
n 0.00575712 Peri. 139.66407 +0.91874594 +0.08758997
a 30.8318063 Node 139.20217 -0.24544778 -0.63710820
e 0.9333605 Incl. 143.89616 +0.30929157 -0.76578139
P 171.20 H 15.9 G 0.15 U 7

MPEC 2010 - O26


__________________
Page 1 of 1  sorted by
 
Quick Reply

Please log in to post quick replies.



Create your own FREE Forum
Report Abuse
Powered by ActiveBoard